User: anonymous   Login
Location: Mentone
(34.5413°N, 85.5351°W)
Time: 05:30:50
(UTC-06:00)
Language:

AO-Echo - Orbit

View from above orbital plane
View from above orbital plane
View from above satellite
View from above satellite

Ground track
Ground track

The orbit data is extracted from the following two-line orbital elements,

1 28375U 04025K   14353.82287878  .00000449  00000-0  14558-3 0   187
2 28375 098.2745 294.6248 0083741 150.7425 209.8493 14.41531805550652
Epoch (UTC): 19 December 2014 19:44:56
Eccentricity: 0.0083741
inclination: 98.2745°
perigee height: 694 km
apogee height: 813 km
right ascension of ascending node: 294.6248°
argument of perigee: 150.7425°
revolutions per day: 14.41531805
mean anomaly at epoch: 209.8493°
orbit number at epoch: 55065

The dashed part of the orbit path shows where the satellite is in the earth's shadow,  

DLR